| time (UTC) | temp F | wind direction | speed MPH | gust MPH | rain 1hr in | rain 24hr in | rain mn in | humidity % | barometer mb |
| 20260902091004 | 49 | 306 | 0.0 | 0.0 | 0.00 | 0.00 | 0.00 | 70 | 1018.6 |
| 20260902090504 | 49 | 306 | 0.0 | 0.0 | 0.00 | 0.00 | 0.00 | 70 | 1018.5 |
| 20260902090007 | 49 | 306 | 0.0 | 0.0 | 0.00 | 0.00 | 0.00 | 70 | 1018.5 |
| 20260902085506 | 49 | 306 | 0.0 | 0.0 | 0.00 | 0.00 | 0.00 | 70 | 1018.6 |
| 20260902084459 | 50 | 306 | 0.0 | 0.0 | 0.00 | 0.00 | 0.00 | 70 | 1018.6 |
| 20260902084005 | 50 | 305 | 0.0 | 0.0 | 0.00 | 0.00 | 0.00 | 70 | 1018.6 |
| 20260902083504 | 49 | 305 | 0.0 | 0.0 | 0.00 | 0.00 | 0.00 | 71 | 1018.6 |
| 20260902083005 | 49 | 305 | 0.0 | 0.0 | 0.00 | 0.00 | 0.00 | 71 | 1018.6 |
| 20260902082500 | 49 | 305 | 0.0 | 0.0 | 0.00 | 0.00 | 0.00 | 72 | 1018.6 |
| 20260902082005 | 50 | 305 | 0.0 | 0.0 | 0.00 | 0.00 | 0.00 | 72 | 1018.7 |
| 20260902081506 | 50 | 305 | 0.0 | 0.0 | 0.00 | 0.00 | 0.00 | 72 | 1018.7 |
| 20260902080504 | 50 | 305 | 0.0 | 1.0 | 0.00 | 0.00 | 0.00 | 71 | 1018.8 |
| 20260902080004 | 50 | 305 | 0.0 | 1.0 | 0.00 | 0.00 | 0.00 | 72 | 1018.8 |
| 20260902075500 | 50 | 309 | 0.0 | 1.0 | 0.00 | 0.00 | 0.00 | 73 | 1018.6 |
| 20260902075006 | 50 | 284 | 0.0 | 1.0 | 0.00 | 0.00 | 0.00 | 73 | 1018.6 |
| 20260902074500 | 50 | 277 | 0.0 | 1.0 | 0.00 | 0.00 | 0.00 | 73 | 1018.5 |
| 20260902074004 | 49 | 271 | 0.0 | 1.0 | 0.00 | 0.00 | 0.00 | 74 | 1018.5 |
| 20260902073004 | 49 | 253 | 0.0 | 2.0 | 0.00 | 0.00 | 0.00 | 74 | 1018.5 |
| 20260902072505 | 49 | 284 | 0.0 | 1.0 | 0.00 | 0.00 | 0.00 | 75 | 1018.5 |
| 20260902072004 | 48 | 284 | 0.0 | 1.0 | 0.00 | 0.00 | 0.00 | 76 | 1018.5 |
| 20260902071504 | 48 | 285 | 0.0 | 1.0 | 0.00 | 0.00 | 0.00 | 77 | 1018.5 |
| 20260902071005 | 48 | 285 | 0.0 | 1.0 | 0.00 | 0.00 | 0.00 | 78 | 1018.5 |
| 20260902070502 | 48 | 302 | 0.0 | 1.0 | 0.00 | 0.00 | 0.00 | 78 | 1018.5 |
| 20260902070011 | 48 | 302 | 0.0 | 1.0 | 0.00 | 0.00 | 0.00 | 79 | 1018.5 |
| 20260902065501 | 47 | 303 | 0.0 | 1.0 | 0.00 | 0.00 | 0.00 | 80 | 1018.5 |
| 20260902065004 | 47 | 303 | 0.0 | 1.0 | 0.00 | 0.00 | 0.00 | 81 | 1018.6 |
| 20260902064503 | 46 | 305 | 0.0 | 0.0 | 0.00 | 0.00 | 0.00 | 82 | 1018.5 |
| 20260902064004 | 46 | 305 | 0.0 | 0.0 | 0.00 | 0.00 | 0.00 | 82 | 1018.6 |
| 20260902063004 | 46 | 305 | 0.0 | 0.0 | 0.00 | 0.00 | 0.00 | 82 | 1018.6 |
| 20260902062004 | 46 | 305 | 0.0 | 0.0 | 0.00 | 0.00 | 0.00 | 83 | 1018.6 |
| 20260902061459 | 46 | 305 | 0.0 | 0.0 | 0.00 | 0.00 | 0.00 | 82 | 1018.5 |
| 20260902061004 | 46 | 305 | 0.0 | 0.0 | 0.00 | 0.00 | 0.00 | 82 | 1018.6 |
| 20260902060504 | 46 | 305 | 0.0 | 0.0 | 0.00 | 0.00 | 0.00 | 81 | 1018.7 |
| 20260902060008 | 46 | 305 | 0.0 | 0.0 | 0.00 | 0.00 | 0.00 | 81 | 1018.7 |
| 20260902055006 | 47 | 304 | 0.0 | 1.0 | 0.00 | 0.00 | 0.00 | 79 | 1018.8 |
| 20260902054500 | 47 | 316 | 0.0 | 1.0 | 0.00 | 0.00 | 0.00 | 79 | 1018.8 |
| 20260902054008 | 47 | 9 | 0.0 | 1.0 | 0.00 | 0.00 | 0.00 | 79 | 1018.8 |
| 20260902053503 | 47 | 10 | 0.0 | 1.0 | 0.00 | 0.00 | 0.00 | 79 | 1018.7 |
| 20260902053004 | 47 | 124 | 0.0 | 0.0 | 0.00 | 0.00 | 0.00 | 79 | 1018.8 |
| 20260902052503 | 47 | 126 | 0.0 | 1.0 | 0.00 | 0.00 | 0.00 | 78 | 1018.7 |
| 20260902052000 | 48 | 126 | 0.0 | 1.0 | 0.00 | 0.00 | 0.00 | 78 | 1018.8 |
| 20260902051503 | 48 | 126 | 0.0 | 1.0 | 0.00 | 0.00 | 0.00 | 78 | 1018.9 |
| 20260902051007 | 48 | 126 | 0.0 | 0.0 | 0.00 | 0.00 | 0.00 | 78 | 1018.9 |
| 20260902050504 | 48 | 126 | 0.0 | 1.0 | 0.00 | 0.00 | 0.00 | 77 | 1018.8 |
| 20260902050005 | 48 | 126 | 0.0 | 1.0 | 0.00 | 0.00 | 0.00 | 77 | 1018.9 |
| 20260902045002 | 49 | 126 | 0.0 | 1.0 | 0.00 | 0.00 | 0.00 | 76 | 1018.7 |
| 20260902044503 | 49 | 127 | 0.0 | 1.0 | 0.00 | 0.00 | 0.00 | 76 | 1018.8 |
| 20260902044005 | 49 | 132 | 0.0 | 1.0 | 0.00 | 0.00 | 0.00 | 76 | 1018.8 |
| 20260902043500 | 49 | 134 | 0.0 | 1.0 | 0.00 | 0.00 | 0.00 | 75 | 1018.6 |
| 20260902043006 | 49 | 134 | 0.0 | 0.0 | 0.00 | 0.00 | 0.00 | 75 | 1018.6 |
| 20260902041503 | 49 | 134 | 0.0 | 0.0 | 0.00 | 0.00 | 0.00 | 74 | 1018.5 |
| 20260902041007 | 50 | 134 | 0.0 | 0.0 | 0.00 | 0.00 | 0.00 | 73 | 1018.5 |
| 20260902040500 | 50 | 134 | 0.0 | 0.0 | 0.00 | 0.00 | 0.00 | 73 | 1018.3 |
| 20260902040007 | 50 | 134 | 0.0 | 0.0 | 0.00 | 0.00 | 0.00 | 72 | 1018.3 |
| 20260902035506 | 50 | 134 | 0.0 | 0.0 | 0.00 | 0.00 | 0.00 | 72 | 1018.3 |
| 20260902034503 | 51 | 134 | 0.0 | 0.0 | 0.00 | 0.00 | 0.00 | 70 | 1018.2 |
| 20260902034003 | 51 | 134 | 0.0 | 0.0 | 0.00 | 0.00 | 0.00 | 70 | 1018.1 |
| 20260902033504 | 52 | 134 | 0.0 | 0.0 | 0.00 | 0.00 | 0.00 | 69 | 1018.2 |
| 20260902033001 | 52 | 134 | 0.0 | 0.0 | 0.00 | 0.00 | 0.00 | 68 | 1018.2 |
| 20260902032503 | 52 | 134 | 0.0 | 2.0 | 0.00 | 0.00 | 0.00 | 67 | 1018.1 |
| 20260902031504 | 53 | 133 | 0.0 | 0.0 | 0.00 | 0.00 | 0.00 | 67 | 1018.0 |
| 20260902030008 | 53 | 133 | 0.0 | 1.0 | 0.00 | 0.00 | 0.00 | 65 | 1017.8 |
| 20260902025504 | 54 | 133 | 0.0 | 1.0 | 0.00 | 0.00 | 0.00 | 65 | 1017.8 |
| 20260902025004 | 54 | 132 | 0.0 | 0.0 | 0.00 | 0.00 | 0.00 | 65 | 1017.7 |
| 20260902024505 | 54 | 133 | 0.0 | 0.0 | 0.00 | 0.00 | 0.00 | 65 | 1017.6 |
| 20260902023503 | 55 | 133 | 0.0 | 1.0 | 0.00 | 0.00 | 0.00 | 63 | 1017.5 |
| 20260902023004 | 55 | 133 | 0.0 | 1.0 | 0.00 | 0.00 | 0.00 | 62 | 1017.5 |
| 20260902021503 | 56 | 84 | 0.0 | 0.0 | 0.00 | 0.00 | 0.00 | 60 | 1017.5 |
| 20260902020008 | 57 | 101 | 0.0 | 1.0 | 0.00 | 0.00 | 0.00 | 58 | 1017.4 |
| 20260902015503 | 57 | 110 | 0.0 | 2.0 | 0.00 | 0.00 | 0.00 | 58 | 1017.4 |
| 20260902015007 | 58 | 125 | 0.0 | 1.0 | 0.00 | 0.00 | 0.00 | 58 | 1017.5 |
| 20260902014506 | 58 | 124 | 0.0 | 2.0 | 0.00 | 0.00 | 0.00 | 57 | 1017.4 |
| 20260902014006 | 58 | 124 | 0.0 | 2.0 | 0.00 | 0.00 | 0.00 | 56 | 1017.4 |
| 20260902013008 | 59 | 159 | 0.0 | 3.0 | 0.00 | 0.00 | 0.00 | 55 | 1017.4 |
| 20260902012506 | 59 | 258 | 0.0 | 1.0 | 0.00 | 0.00 | 0.00 | 54 | 1017.4 |
| 20260902012006 | 59 | 255 | 0.0 | 1.0 | 0.00 | 0.00 | 0.00 | 54 | 1017.4 |
| 20260902011506 | 60 | 150 | 0.0 | 1.0 | 0.00 | 0.00 | 0.00 | 54 | 1017.4 |
| 20260902011006 | 60 | 226 | 0.0 | 4.0 | 0.00 | 0.00 | 0.00 | 53 | 1017.4 |
| 20260902010506 | 60 | 207 | 1.0 | 4.0 | 0.00 | 0.00 | 0.00 | 53 | 1017.4 |
| 20260902010007 | 60 | 139 | 1.0 | 4.0 | 0.00 | 0.00 | 0.00 | 53 | 1017.4 |
| 20260902005505 | 60 | 212 | 1.0 | 5.0 | 0.00 | 0.00 | 0.00 | 52 | 1017.5 |
| 20260902005008 | 61 | 115 | 1.0 | 5.0 | 0.00 | 0.00 | 0.00 | 52 | 1017.5 |
| 20260902004506 | 61 | 131 | 0.0 | 2.0 | 0.00 | 0.00 | 0.00 | 52 | 1017.4 |
| 20260902004004 | 61 | 120 | 0.0 | 2.0 | 0.00 | 0.00 | 0.00 | 51 | 1017.5 |
| 20260902003504 | 61 | 132 | 1.0 | 3.0 | 0.00 | 0.00 | 0.00 | 51 | 1017.5 |
| 20260902003006 | 61 | 151 | 2.0 | 6.0 | 0.00 | 0.00 | 0.00 | 50 | 1017.5 |
| 20260902002006 | 62 | 129 | 2.0 | 7.0 | 0.00 | 0.00 | 0.00 | 48 | 1017.4 |
| 20260902001505 | 63 | 158 | 1.0 | 7.0 | 0.00 | 0.00 | 0.00 | 47 | 1017.5 |
| 20260902001005 | 63 | 142 | 0.0 | 3.0 | 0.00 | 0.00 | 0.00 | 47 | 1017.5 |
| 20260901235505 | 63 | 256 | 2.0 | 6.0 | 0.00 | 0.00 | 0.00 | 46 | 1017.5 |
| 20260901235006 | 64 | 127 | 2.0 | 6.0 | 0.00 | 0.00 | 0.00 | 45 | 1017.6 |
| 20260901234505 | 64 | 338 | 1.0 | 5.0 | 0.00 | 0.00 | 0.00 | 45 | 1017.6 |
| 20260901234005 | 64 | 135 | 1.0 | 5.0 | 0.00 | 0.00 | 0.00 | 46 | 1017.6 |
| 20260901233505 | 63 | 130 | 1.0 | 4.0 | 0.00 | 0.00 | 0.00 | 48 | 1017.7 |
| 20260901233004 | 63 | 139 | 1.0 | 3.0 | 0.00 | 0.00 | 0.00 | 47 | 1017.7 |
| 20260901232504 | 63 | 136 | 1.0 | 3.0 | 0.00 | 0.00 | 0.00 | 47 | 1017.7 |
| 20260901232007 | 64 | 96 | 0.0 | 3.0 | 0.00 | 0.00 | 0.00 | 46 | 1017.8 |
| 20260901231505 | 64 | 83 | 1.0 | 4.0 | 0.00 | 0.00 | 0.00 | 47 | 1017.7 |
| 20260901231006 | 64 | 120 | 1.0 | 4.0 | 0.00 | 0.00 | 0.00 | 46 | 1017.8 |
| 20260901230504 | 64 | 261 | 1.0 | 4.0 | 0.00 | 0.00 | 0.00 | 44 | 1017.9 |
| 20260901225502 | 65 | 109 | 1.0 | 5.0 | 0.00 | 0.00 | 0.00 | 42 | 1017.8 |
| 20260901224007 | 65 | 150 | 2.0 | 7.0 | 0.00 | 0.00 | 0.00 | 42 | 1017.6 |
| 20260901223505 | 66 | 146 | 1.0 | 5.0 | 0.00 | 0.00 | 0.00 | 41 | 1017.7 |
| 20260901223008 | 66 | 241 | 1.0 | 8.0 | 0.00 | 0.00 | 0.00 | 41 | 1017.7 |
| 20260901222504 | 66 | 267 | 2.0 | 8.0 | 0.00 | 0.00 | 0.00 | 42 | 1017.7 |
| 20260901222005 | 65 | 252 | 2.0 | 5.0 | 0.00 | 0.00 | 0.00 | 43 | 1017.7 |
| 20260901221505 | 66 | 94 | 3.0 | 8.0 | 0.00 | 0.00 | 0.00 | 42 | 1017.9 |
| 20260901221006 | 66 | 218 | 2.0 | 8.0 | 0.00 | 0.00 | 0.00 | 42 | 1018.0 |
| 20260901220504 | 67 | 271 | 1.0 | 5.0 | 0.00 | 0.00 | 0.00 | 40 | 1018.0 |
| 20260901220004 | 67 | 155 | 1.0 | 3.0 | 0.00 | 0.00 | 0.00 | 40 | 1018.0 |
| 20260901215504 | 67 | 255 | 2.0 | 9.0 | 0.00 | 0.00 | 0.00 | 41 | 1018.0 |
| 20260901215003 | 67 | 304 | 3.0 | 9.0 | 0.00 | 0.00 | 0.00 | 39 | 1018.0 |
| 20260901214504 | 67 | 148 | 2.0 | 9.0 | 0.00 | 0.00 | 0.00 | 39 | 1018.1 |
| 20260901214004 | 67 | 143 | 1.0 | 7.0 | 0.00 | 0.00 | 0.00 | 39 | 1018.1 |
| 20260901213505 | 67 | 86 | 1.0 | 6.0 | 0.00 | 0.00 | 0.00 | 39 | 1018.1 |
| 20260901213006 | 66 | 146 | 2.0 | 9.0 | 0.00 | 0.00 | 0.00 | 40 | 1018.0 |
| 20260901212504 | 66 | 224 | 2.0 | 9.0 | 0.00 | 0.00 | 0.00 | 40 | 1018.0 |
| 20260901212004 | 67 | 300 | 2.0 | 9.0 | 0.00 | 0.00 | 0.00 | 40 | 1018.0 |
| 20260901211504 | 66 | 58 | 3.0 | 10.0 | 0.00 | 0.00 | 0.00 | 41 | 1018.0 |
| 20260901210506 | 68 | 240 | 2.0 | 6.0 | 0.00 | 0.00 | 0.00 | 38 | 1018.0 |
| 20260901210009 | 68 | 227 | 1.0 | 5.0 | 0.00 | 0.00 | 0.00 | 40 | 1017.9 |
| 20260901205505 | 68 | 109 | 2.0 | 5.0 | 0.00 | 0.00 | 0.00 | 40 | 1017.9 |
| 20260901205005 | 67 | 152 | 3.0 | 12.0 | 0.00 | 0.00 | 0.00 | 39 | 1017.9 |
| 20260901204505 | 68 | 172 | 2.0 | 12.0 | 0.00 | 0.00 | 0.00 | 36 | 1017.9 |
| 20260901203504 | 69 | 165 | 2.0 | 5.0 | 0.00 | 0.00 | 0.00 | 38 | 1017.8 |
| 20260901203003 | 68 | 113 | 3.0 | 9.0 | 0.00 | 0.00 | 0.00 | 38 | 1017.8 |
| 20260901202503 | 69 | 214 | 2.0 | 11.0 | 0.00 | 0.00 | 0.00 | 36 | 1018.0 |
| 20260901202007 | 69 | 338 | 2.0 | 6.0 | 0.00 | 0.00 | 0.00 | 37 | 1018.1 |
| 20260901201003 | 68 | 269 | 3.0 | 7.0 | 0.00 | 0.00 | 0.00 | 37 | 1018.0 |
| 20260901200504 | 68 | 101 | 3.0 | 9.0 | 0.00 | 0.00 | 0.00 | 38 | 1017.8 |
| 20260901195504 | 68 | 217 | 3.0 | 11.0 | 0.00 | 0.00 | 0.00 | 36 | 1018.1 |
| 20260901195007 | 69 | 78 | 3.0 | 7.0 | 0.00 | 0.00 | 0.00 | 35 | 1018.0 |
| 20260901194503 | 69 | 209 | 3.0 | 10.0 | 0.00 | 0.00 | 0.00 | 34 | 1018.0 |
| 20260901193005 | 68 | 142 | 3.0 | 11.0 | 0.00 | 0.00 | 0.00 | 36 | 1018.0 |
| 20260901192504 | 69 | 220 | 2.0 | 9.0 | 0.00 | 0.00 | 0.00 | 35 | 1018.3 |
| 20260901192005 | 68 | 174 | 3.0 | 8.0 | 0.00 | 0.00 | 0.00 | 35 | 1018.1 |
| 20260901191506 | 67 | 236 | 4.0 | 8.0 | 0.00 | 0.00 | 0.00 | 34 | 1018.1 |
| 20260901191004 | 67 | 111 | 4.0 | 9.0 | 0.00 | 0.00 | 0.00 | 34 | 1018.2 |
| 20260901190506 | 67 | 129 | 3.0 | 9.0 | 0.00 | 0.00 | 0.00 | 33 | 1018.1 |
| 20260901190008 | 68 | 128 | 3.0 | 8.0 | 0.00 | 0.00 | 0.00 | 33 | 1018.1 |
| 20260901185504 | 68 | 139 | 3.0 | 7.0 | 0.00 | 0.00 | 0.00 | 34 | 1018.3 |
| 20260901185005 | 68 | 231 | 3.0 | 7.0 | 0.00 | 0.00 | 0.00 | 36 | 1018.2 |
| 20260901184504 | 68 | 232 | 3.0 | 7.0 | 0.00 | 0.00 | 0.00 | 36 | 1018.2 |
| 20260901184006 | 68 | 155 | 3.0 | 9.0 | 0.00 | 0.00 | 0.00 | 36 | 1018.1 |
| 20260901183504 | 69 | 186 | 2.0 | 9.0 | 0.00 | 0.00 | 0.00 | 36 | 1018.1 |
| 20260901183008 | 68 | 161 | 2.0 | 8.0 | 0.00 | 0.00 | 0.00 | 40 | 1018.1 |
| 20260901182005 | 67 | 194 | 3.0 | 9.0 | 0.00 | 0.00 | 0.00 | 42 | 1018.1 |
| 20260901181506 | 67 | 138 | 3.0 | 9.0 | 0.00 | 0.00 | 0.00 | 41 | 1018.3 |
| 20260901181005 | 67 | 161 | 2.0 | 6.0 | 0.00 | 0.00 | 0.00 | 42 | 1018.1 |
| 20260901180505 | 67 | 289 | 2.0 | 7.0 | 0.00 | 0.00 | 0.00 | 42 | 1018.1 |
| 20260901180009 | 67 | 184 | 3.0 | 8.0 | 0.00 | 0.00 | 0.00 | 42 | 1018.1 |
| 20260901175506 | 66 | 115 | 3.0 | 8.0 | 0.00 | 0.00 | 0.00 | 41 | 1018.0 |
| 20260901174003 | 66 | 146 | 2.0 | 7.0 | 0.00 | 0.00 | 0.00 | 40 | 1017.7 |
| 20260901173503 | 66 | 141 | 2.0 | 6.0 | 0.00 | 0.00 | 0.00 | 41 | 1017.7 |
| 20260901173006 | 65 | 143 | 3.0 | 8.0 | 0.00 | 0.00 | 0.00 | 43 | 1017.6 |
| 20260901172504 | 65 | 141 | 3.0 | 8.0 | 0.00 | 0.00 | 0.00 | 43 | 1017.6 |
| 20260901172009 | 65 | 127 | 2.0 | 8.0 | 0.00 | 0.00 | 0.00 | 45 | 1017.6 |
| 20260901171505 | 65 | 210 | 3.0 | 7.0 | 0.00 | 0.00 | 0.00 | 44 | 1017.5 |
| 20260901171005 | 64 | 252 | 3.0 | 8.0 | 0.00 | 0.00 | 0.00 | 44 | 1017.4 |
| 20260901170505 | 65 | 124 | 2.0 | 8.0 | 0.00 | 0.00 | 0.00 | 44 | 1017.4 |
| 20260901170004 | 64 | 94 | 2.0 | 8.0 | 0.00 | 0.00 | 0.00 | 45 | 1017.5 |
| 20260901165004 | 64 | 229 | 3.0 | 9.0 | 0.00 | 0.00 | 0.00 | 45 | 1017.4 |
| 20260901164506 | 64 | 193 | 3.0 | 7.0 | 0.00 | 0.00 | 0.00 | 45 | 1017.4 |
| 20260901163504 | 64 | 235 | 2.0 | 6.0 | 0.00 | 0.00 | 0.00 | 45 | 1017.2 |
| 20260901163007 | 64 | 115 | 2.0 | 6.0 | 0.00 | 0.00 | 0.00 | 46 | 1017.2 |
| 20260901162504 | 64 | 214 | 2.0 | 5.0 | 0.00 | 0.00 | 0.00 | 46 | 1017.0 |
| 20260901162003 | 63 | 161 | 1.0 | 5.0 | 0.00 | 0.00 | 0.00 | 47 | 1017.0 |
| 20260901161506 | 63 | 144 | 1.0 | 5.0 | 0.00 | 0.00 | 0.00 | 48 | 1017.1 |
| 20260901161004 | 62 | 140 | 2.0 | 5.0 | 0.00 | 0.00 | 0.00 | 50 | 1017.0 |
| 20260901160505 | 61 | 148 | 3.0 | 6.0 | 0.00 | 0.00 | 0.00 | 49 | 1016.9 |
| 20260901155505 | 61 | 129 | 2.0 | 6.0 | 0.00 | 0.00 | 0.00 | 51 | 1016.8 |
| 20260901155006 | 60 | 193 | 2.0 | 6.0 | 0.00 | 0.00 | 0.00 | 51 | 1016.8 |
| 20260901154505 | 60 | 234 | 2.0 | 5.0 | 0.00 | 0.00 | 0.00 | 53 | 1016.7 |
| 20260901154006 | 60 | 136 | 1.0 | 4.0 | 0.00 | 0.00 | 0.00 | 53 | 1016.7 |
| 20260901153506 | 59 | 141 | 1.0 | 4.0 | 0.00 | 0.00 | 0.00 | 54 | 1016.6 |
| 20260901153004 | 59 | 207 | 2.0 | 3.0 | 0.00 | 0.00 | 0.00 | 54 | 1016.5 |
| 20260901152503 | 59 | 152 | 2.0 | 4.0 | 0.00 | 0.00 | 0.00 | 54 | 1016.5 |
| 20260901151004 | 59 | 136 | 1.0 | 4.0 | 0.00 | 0.00 | 0.00 | 55 | 1016.3 |
| 20260901150504 | 59 | 148 | 1.0 | 5.0 | 0.00 | 0.00 | 0.00 | 54 | 1016.2 |
| 20260901150010 | 59 | 170 | 1.0 | 5.0 | 0.00 | 0.00 | 0.00 | 54 | 1016.2 |
| 20260901145504 | 58 | 128 | 1.0 | 3.0 | 0.00 | 0.00 | 0.00 | 55 | 1016.2 |
| 20260901145004 | 59 | 252 | 1.0 | 3.0 | 0.00 | 0.00 | 0.00 | 55 | 1016.0 |
| 20260901144504 | 58 | 127 | 1.0 | 4.0 | 0.00 | 0.00 | 0.00 | 57 | 1016.0 |
| 20260901144004 | 57 | 143 | 1.0 | 4.0 | 0.00 | 0.00 | 0.00 | 57 | 1016.0 |
| 20260901143504 | 56 | 150 | 0.0 | 3.0 | 0.00 | 0.00 | 0.00 | 60 | 1015.9 |
| 20260901143006 | 56 | 136 | 0.0 | 0.0 | 0.00 | 0.00 | 0.00 | 61 | 1016.0 |
| 20260901142005 | 54 | 136 | 0.0 | 1.0 | 0.00 | 0.00 | 0.00 | 63 | 1015.9 |
| 20260901141504 | 53 | 136 | 0.0 | 1.0 | 0.00 | 0.00 | 0.00 | 63 | 1015.8 |
| 20260901141006 | 54 | 137 | 0.0 | 0.0 | 0.00 | 0.00 | 0.00 | 62 | 1015.8 |
| 20260901140504 | 54 | 136 | 0.0 | 1.0 | 0.00 | 0.00 | 0.00 | 60 | 1015.7 |
| 20260901140003 | 54 | 136 | 0.0 | 1.0 | 0.00 | 0.00 | 0.00 | 60 | 1015.6 |
| 20260901135504 | 53 | 281 | 0.0 | 0.0 | 0.00 | 0.00 | 0.00 | 60 | 1015.6 |
| 20260901134004 | 53 | 281 | 0.0 | 0.0 | 0.00 | 0.00 | 0.00 | 59 | 1015.5 |
| 20260901133508 | 53 | 281 | 0.0 | 0.0 | 0.00 | 0.00 | 0.00 | 58 | 1015.6 |
| 20260901133009 | 54 | 281 | 0.0 | 0.0 | 0.00 | 0.00 | 0.00 | 59 | 1015.6 |
| 20260901132505 | 54 | 281 | 0.0 | 0.0 | 0.00 | 0.00 | 0.00 | 59 | 1015.6 |
| 20260901132006 | 54 | 281 | 0.0 | 0.0 | 0.00 | 0.00 | 0.00 | 60 | 1015.5 |
| 20260901131504 | 53 | 281 | 0.0 | 0.0 | 0.00 | 0.00 | 0.00 | 62 | 1015.5 |
| 20260901131007 | 53 | 281 | 0.0 | 0.0 | 0.00 | 0.00 | 0.00 | 63 | 1015.5 |
| 20260901130007 | 54 | 281 | 0.0 | 0.0 | 0.00 | 0.00 | 0.00 | 61 | 1015.6 |
| 20260901125505 | 54 | 281 | 0.0 | 0.0 | 0.00 | 0.00 | 0.00 | 62 | 1015.6 |
| 20260901125004 | 54 | 281 | 0.0 | 1.0 | 0.00 | 0.00 | 0.00 | 63 | 1015.6 |
| 20260901124505 | 54 | 281 | 0.0 | 1.0 | 0.00 | 0.00 | 0.00 | 63 | 1015.6 |
| 20260901124005 | 54 | 281 | 0.0 | 0.0 | 0.00 | 0.00 | 0.00 | 63 | 1015.4 |
| 20260901123505 | 54 | 281 | 0.0 | 0.0 | 0.00 | 0.00 | 0.00 | 62 | 1015.5 |
| 20260901123005 | 54 | 281 | 0.0 | 0.0 | 0.00 | 0.00 | 0.00 | 62 | 1015.5 |
| 20260901122504 | 54 | 281 | 0.0 | 0.0 | 0.00 | 0.00 | 0.00 | 63 | 1015.5 |
| 20260901122003 | 54 | 281 | 0.0 | 0.0 | 0.00 | 0.00 | 0.00 | 62 | 1015.5 |
| 20260901120504 | 55 | 281 | 0.0 | 1.0 | 0.00 | 0.00 | 0.00 | 61 | 1015.5 |
| 20260901120007 | 55 | 281 | 0.0 | 1.0 | 0.00 | 0.00 | 0.00 | 61 | 1015.6 |
| 20260901115503 | 55 | 297 | 0.0 | 1.0 | 0.00 | 0.00 | 0.00 | 61 | 1015.4 |
| 20260901114505 | 55 | 297 | 0.0 | 0.0 | 0.00 | 0.00 | 0.00 | 60 | 1015.4 |
| 20260901113505 | 55 | 297 | 0.0 | 0.0 | 0.00 | 0.00 | 0.00 | 60 | 1015.5 |
| 20260901113004 | 55 | 297 | 0.0 | 0.0 | 0.00 | 0.00 | 0.00 | 59 | 1015.4 |
| 20260901112504 | 55 | 297 | 0.0 | 0.0 | 0.00 | 0.00 | 0.00 | 58 | 1015.5 |
| 20260901112010 | 55 | 297 | 0.0 | 1.0 | 0.00 | 0.00 | 0.00 | 58 | 1015.4 |
| 20260901111505 | 55 | 297 | 0.0 | 1.0 | 0.00 | 0.00 | 0.00 | 59 | 1015.4 |
| 20260901111004 | 55 | 297 | 0.0 | 1.0 | 0.00 | 0.00 | 0.00 | 58 | 1015.3 |
| 20260901110508 | 55 | 297 | 0.0 | 1.0 | 0.00 | 0.00 | 0.00 | 58 | 1015.3 |
| 20260901110007 | 55 | 297 | 0.0 | 1.0 | 0.00 | 0.00 | 0.00 | 57 | 1015.5 |
| 20260901105504 | 54 | 297 | 0.0 | 1.0 | 0.00 | 0.00 | 0.00 | 56 | 1015.4 |
| 20260901105006 | 54 | 297 | 0.0 | 0.0 | 0.00 | 0.00 | 0.00 | 56 | 1015.5 |
| 20260901104504 | 55 | 297 | 0.0 | 1.0 | 0.00 | 0.00 | 0.00 | 55 | 1015.6 |
| 20260901104004 | 54 | 297 | 0.0 | 1.0 | 0.00 | 0.00 | 0.00 | 54 | 1015.5 |
| 20260901103505 | 54 | 297 | 0.0 | 1.0 | 0.00 | 0.00 | 0.00 | 53 | 1015.5 |
| 20260901103007 | 54 | 297 | 0.0 | 1.0 | 0.00 | 0.00 | 0.00 | 52 | 1015.6 |
| 20260901102004 | 55 | 297 | 0.0 | 1.0 | 0.00 | 0.00 | 0.00 | 50 | 1015.5 |
| 20260901101506 | 55 | 297 | 0.0 | 0.0 | 0.00 | 0.00 | 0.00 | 50 | 1015.7 |
| 20260901101005 | 55 | 297 | 0.0 | 1.0 | 0.00 | 0.00 | 0.00 | 49 | 1015.6 |
| 20260901100502 | 55 | 297 | 0.0 | 1.0 | 0.00 | 0.00 | 0.00 | 50 | 1015.6 |
| 20260901095505 | 56 | 297 | 0.0 | 0.0 | 0.00 | 0.00 | 0.00 | 47 | 1015.7 |
| 20260901095006 | 56 | 297 | 0.0 | 0.0 | 0.00 | 0.00 | 0.00 | 48 | 1015.7 |
| 20260901094504 | 56 | 297 | 0.0 | 0.0 | 0.00 | 0.00 | 0.00 | 50 | 1015.7 |
| 20260901094007 | 56 | 297 | 0.0 | 0.0 | 0.00 | 0.00 | 0.00 | 50 | 1015.8 |
| 20260901093505 | 55 | 297 | 0.0 | 0.0 | 0.00 | 0.00 | 0.00 | 52 | 1015.9 |
| 20260901092504 | 55 | 298 | 0.0 | 0.0 | 0.00 | 0.00 | 0.00 | 56 | 1016.0 |
| 20260901091500 | 55 | 264 | 0.0 | 0.0 | 0.00 | 0.00 | 0.00 | 55 | 1016.1 |